Location: Arezzo
(43.4170°N, 11.8830°E)
Time: 11:28:50
(UTC+02:00)

STARLINK-2754 - Visible Passes

Search period start: 28 October 2021 00:00
Search period end: 06 November 2021 23:00
Orbit: 546 x 548 km, 53.1° (Epoch: 27 October)

Date Brightness Start Highest point End Pass type
(mag) Time Alt. Az. Time Alt. Az. Time Alt. Az.
28 Oct 5.9 05:18:27 16° SSE 05:19:55 19° SE 05:22:51 10° E visible
28 Oct 3.6 06:54:55 10° WSW 06:59:03 74° NNW 07:03:10 10° NE visible
29 Oct 5.5 05:13:16 25° SE 05:13:30 25° SE 05:16:54 10° ENE visible
29 Oct 3.7 06:48:54 11° WSW 06:52:46 58° NNW 06:56:51 10° NE visible
30 Oct 5.3 05:07:52 30° ESE 05:07:52 30° ESE 05:10:49 10° ENE visible
30 Oct 4.0 06:43:31 17° W 06:46:31 47° NNW 06:50:31 10° NE visible
31 Oct 5.5 04:02:20 29° E 04:02:20 29° E 04:04:39 10° ENE visible
31 Oct 4.2 05:37:58 21° W 05:40:17 39° NNW 05:44:12 10° NE visible
01 Nov 5.8 03:56:41 24° ENE 03:56:41 24° ENE 03:58:26 10° ENE visible
01 Nov 4.5 05:32:18 23° WNW 05:34:05 34° NNW 05:37:51 10° NE visible
02 Nov 6.2 03:50:55 19° ENE 03:50:55 19° ENE 03:52:10 10° ENE visible
02 Nov 4.7 05:26:33 24° NW 05:27:53 29° NNW 05:31:32 10° NE visible
03 Nov 6.4 03:45:06 15° NE 03:45:06 15° NE 03:45:53 10° NE visible
03 Nov 4.9 05:20:43 24° NW 05:21:43 26° NNW 05:25:15 10° NE visible
04 Nov 6.7 03:39:13 12° NE 03:39:13 12° NE 03:39:35 10° NE visible
04 Nov 5.0 05:14:50 23° NNW 05:15:33 24° NNW 05:18:58 10° NE visible
05 Nov 5.1 05:08:54 22° NNW 05:09:25 23° N 05:12:44 10° NE visible
06 Nov 5.2 05:02:57 21° NNW 05:03:16 22° N 05:06:31 10° NE visible
